[[{"header":{"parameterUnit":"m.s-1","parameterCategory":1,"la1":30.2991,"la2":30.254,"lo1":-89.0895,"lo2":-89.0444,"dy":0.0017,"dx":0.0017,"nx":28,"ny":28,"refTime":"2025-08-05T03:00:00:Z","depth":0,"parameterNumber":2,"parameterNumberName":"U-component_of_WINDS"},"data":[0,0,0,0,0,0,0,0,0,0,0,0,0,0,0,0,0,0,0,0,0,0,0,0,0,0,0,0,0,0,0,0,0,0,0,0,0,0,0,0,0,0,0,0,0,0,0,0,0,0,0,0,0,0,0,0,0,0,-1.6812,-1.6812,0,-1.6807,-1.6806,-1.6806,-1.6786,-1.6786,-1.6785,-1.6785,-1.678,-1.678,-1.678,0,0,0,0,0,0,0,0,0,0,0,0,0,-1.6803,-1.6803,-1.6812,-1.6812,-1.6812,-1.6807,-1.6806,-1.6806,-1.6786,-1.6786,-1.6785,-1.6785,-1.678,-1.678,-1.678,0,0,0,0,0,0,0,0,0,0,0,0,0,-1.6803,-1.6803,-1.6812,-1.6801,-1.68,-1.6807,-1.6806,-1.6806,-1.6786,-1.6786,-1.6785,-1.6784,-1.6779,-1.678,-1.678,-1.6797,0,0,-1.6782,-1.6782,0,0,0,0,0,0,0,0,-1.6803,-1.6804,-1.6803,-1.6802,-1.6801,-1.6796,-1.6801,-1.6803,-1.6787,-1.6792,-1.6785,-1.6784,-1.6786,-1.6786,-1.6786,-1.6797,-1.6796,-1.6782,-1.6782,-1.6782,-1.6782,0,0,0,0,0,0,0,-1.6803,-1.6804,-1.681,-1.6803,-1.6801,-1.6796,-1.6795,-1.6802,-1.6793,-1.6791,-1.679,-1.6789,-1.6785,-1.6786,-1.6786,-1.6796,-1.6782,-1.6782,-1.6782,-1.6782,-1.6818,-1.6819,0,0,0,0,0,0,-1.6805,-1.6804,-1.681,-1.6809,-1.68,-1.6797,-1.6796,-1.6798,-1.6792,-1.6791,-1.679,-1.6788,-1.6785,-1.6785,-1.6786,-1.6803,-1.6782,-1.6782,-1.6783,-1.6818,-1.6819,-1.6819,0,0,0,0,0,0,-1.6805,-1.6806,-1.681,-1.6806,-1.6806,-1.6798,-1.6801,-1.6799,-1.6799,-1.6792,-1.679,-1.6792,-1.6785,-1.6785,-1.6794,-1.6803,-1.6783,-1.6783,-1.6817,-1.6818,-1.6819,-1.684,0,0,0,0,0,0,-1.6805,-1.6806,-1.6812,-1.6807,-1.6807,-1.6819,-1.6801,-1.6799,-1.68,-1.6798,-1.6793,-1.6792,-1.6784,-1.6793,-1.6794,-1.6803,-1.6783,-1.6816,-1.6817,-1.6819,-1.6838,-1.6842,-1.6844,0,0,0,0,0,-1.6804,-1.6819,-1.6813,-1.6814,-1.6815,-1.6819,-1.6819,-1.681,-1.6801,-1.6807,-1.6802,-1.6792,-1.6802,-1.6794,-1.6795,-1.6805,-1.6815,-1.6817,-1.6819,-1.6837,-1.6841,-1.6844,0,0,0,0,0,0,-1.6826,-1.6818,-1.6811,-1.6824,-1.6822,-1.6816,-1.6823,-1.6815,-1.6816,-1.6814,-1.6803,-1.6802,-1.6812,-1.6809,-1.6801,-1.682,-1.6807,-1.6809,-1.6821,-1.6824,-1.6827,-1.6827,-1.6784,0,0,0,0,0,-1.6832,-1.6837,-1.6829,-1.6841,-1.6841,-1.6832,-1.6834,-1.6827,-1.6825,-1.6824,-1.682,-1.6818,-1.682,-1.6822,-1.6825,-1.6838,-1.6836,-1.6845,-1.6848,-1.685,-1.6852,-1.6858,-1.6861,-1.6824,-1.6824,-1.6824,0,0,-1.6845,-1.6841,-1.6845,-1.6846,-1.6844,-1.6848,-1.6832,-1.6838,-1.6841,-1.6825,-1.6833,-1.6829,-1.6827,-1.6838,-1.6842,-1.6836,-1.6862,-1.6852,-1.6854,-1.6854,-1.6859,-1.6863,-1.6866,-1.6826,-1.6825,-1.6825,0,0,-1.6871,-1.6869,-1.6878,-1.6876,-1.6873,-1.6867,-1.6869,-1.6864,-1.6861,-1.6868,-1.6856,-1.686,-1.6865,-1.6863,-1.6862,-1.6886,-1.6877,-1.6887,-1.6903,-1.6908,-1.6911,-1.6913,-1.6921,-1.6924,-1.6889,-1.6889,-1.6889,0,-1.6887,-1.6894,-1.6884,-1.689,-1.689,-1.6876,-1.6885,-1.6883,-1.6881,-1.6881,-1.6874,-1.6879,-1.6876,-1.6886,-1.6892,-1.6892,-1.6894,-1.6887,-1.6911,-1.6914,-1.6916,-1.6923,-1.6926,-1.689,-1.689,-1.689,-1.689,0,-1.6914,-1.6918,-1.6926,-1.6923,-1.6925,-1.6932,-1.6923,-1.6925,-1.6918,-1.6912,-1.692,-1.6916,-1.6916,-1.6918,-1.6911,-1.6926,-1.6922,-1.6914,-1.69,-1.6921,-1.6927,-1.693,-1.6892,-1.6891,-1.6891,-1.6891,0,0,-1.6953,-1.6944,-1.6947,-1.6945,-1.694,-1.6944,-1.695,-1.695,-1.6952,-1.6951,-1.6955,-1.6959,-1.695,-1.695,-1.6943,-1.6948,-1.6966,-1.6939,-1.6938,-1.6943,-1.6981,-1.6987,-1.699,-1.696,-1.696,-1.6961,-1.698,0,-1.6976,-1.6987,-1.6977,-1.6989,-1.6993,-1.6979,-1.6984,-1.6982,-1.6976,-1.6978,-1.6973,-1.6975,-1.6965,-1.6964,-1.6968,-1.6963,-1.6973,-1.6961,-1.6963,-1.6963,-1.6963,-1.6993,-1.7,-1.7019,-1.6983,-1.6983,-1.6984,0,-1.7005,-1.7005,-1.7017,-1.701,-1.7011,-1.7016,-1.7015,-1.7017,-1.7013,-1.7009,-1.7008,-1.6999,-1.7004,-1.6992,-1.6999,-1.6991,-1.6991,-1.6988,-1.6989,-1.6988,-1.6974,-1.6992,-1.7025,-1.7028,-1.6988,-1.6987,-1.6987,0,-1.7031,-1.7034,-1.7041,-1.704,-1.7032,-1.7036,-1.7033,-1.7029,-1.7029,-1.7028,-1.7027,-1.7027,-1.7027,-1.7027,-1.7017,-1.701,-1.7025,-1.7012,-1.7021,-1.7021,-1.7024,-1.7024,-1.7056,-1.7026,-1.7026,-1.7026,-1.7025,0,-1.7058,-1.7066,-1.7052,-1.7057,-1.7064,-1.7053,-1.7061,-1.7057,-1.7053,-1.7056,-1.7044,-1.7047,-1.7035,-1.7037,-1.703,-1.7035,-1.7036,-1.7032,-1.703,-1.7033,-1.7033,-1.7032,-1.703,-1.7026,-1.7026,-1.7026,-1.7026,0,-1.7089,-1.708,-1.7087,-1.7078,-1.7077,-1.7083,-1.7075,-1.7079,-1.7073,-1.7076,-1.7077,-1.7067,-1.7068,-1.7059,-1.7059,-1.7054,-1.7062,-1.7058,-1.7063,-1.7062,-1.7071,-1.707,-1.7103,-1.7106,-1.7075,-1.7075,-1.7075,0,-1.7106,-1.7111,-1.7103,-1.7104,-1.7102,-1.7104,-1.7103,-1.7093,-1.7093,-1.7088,-1.7092,-1.7092,-1.7091,-1.7093,-1.7086,-1.7085,-1.7081,-1.7093,-1.7081,-1.7083,-1.708,-1.7079,-1.7079,-1.7095,-1.7095,-1.7096,-1.7096,0,-1.7137,-1.7132,-1.7132,-1.7131,-1.7131,-1.7129,-1.7127,-1.7128,-1.7116,-1.7117,-1.7118,-1.7117,-1.7116,-1.7116,-1.7114,-1.711,-1.7101,-1.71,-1.7101,-1.7104,-1.7106,-1.7104,-1.7069,-1.7099,-1.7099,-1.7098,-1.7098,-1.7098,-1.7161,-1.7164,-1.7159,-1.7159,-1.7156,-1.7154,-1.7156,-1.715,-1.715,-1.7148,-1.7142,-1.7143,-1.7138,-1.7134,-1.7131,-1.7132,-1.7126,-1.7129,-1.713,-1.7131,-1.7132,-1.7107,-1.7132,-1.7132,-1.7132,-1.7132,-1.7132,0,-1.719,-1.7186,-1.7186,-1.7183,-1.7183,-1.7174,-1.717,-1.7171,-1.7172,-1.7168,-1.7168,-1.7168,-1.7167,-1.716,-1.7158,-1.716,-1.7156,-1.716,-1.7159,-1.7159,-1.7138,-1.7136,-1.7163,-1.7163,-1.7163,-1.7163,-1.7163,-1.7163,-1.7206,-1.7211,-1.7205,-1.7209,-1.7204,-1.7205,-1.7204,-1.7201,-1.7198,-1.7198,-1.7198,-1.7193,-1.7187,-1.7185,-1.7184,-1.7181,-1.7181,-1.7187,-1.7183,-1.7163,-1.716,-1.7157,-1.7155,-1.7187,-1.7187,-1.7204,-1.7204,-1.7204]},{"header":{"parameterUnit":"m.s-1","parameterCategory":1,"la1":30.2991,"la2":30.254,"lo1":-89.0895,"lo2":-89.0444,"dy":0.0017,"dx":0.0017,"nx":28,"ny":28,"refTime":"2025-08-05T03:00:00:Z","depth":0,"parameterNumber":3,"parameterNumberName":"V-component_of_WINDS"},"data":[0,0,0,0,0,0,0,0,0,0,0,0,0,0,0,0,0,0,0,0,0,0,0,0,0,0,0,0,0,0,0,0,0,0,0,0,0,0,0,0,0,0,0,0,0,0,0,0,0,0,0,0,0,0,0,0,0,0,0.0688,0.0689,0,0.0703,0.0703,0.0703,0.07,0.07,0.07,0.0699,0.0714,0.0715,0.0715,0,0,0,0,0,0,0,0,0,0,0,0,0,0.0659,0.066,0.0688,0.0689,0.0689,0.0703,0.0703,0.0703,0.07,0.07,0.0699,0.0699,0.0714,0.0715,0.0716,0,0,0,0,0,0,0,0,0,0,0,0,0,0.0673,0.066,0.0688,0.0689,0.0689,0.0702,0.0703,0.0703,0.07,0.07,0.0699,0.0699,0.0714,0.0715,0.0716,0.0729,0,0,0.0719,0.0719,0,0,0,0,0,0,0,0,0.0672,0.0674,0.0689,0.0689,0.0689,0.0699,0.0698,0.0712,0.07,0.0696,0.0699,0.0699,0.071,0.0711,0.0714,0.073,0.0731,0.0719,0.0719,0.072,0.072,0,0,0,0,0,0,0,0.0671,0.0673,0.0694,0.0689,0.0689,0.0689,0.069,0.0701,0.0705,0.0696,0.0696,0.0698,0.071,0.0713,0.0715,0.0731,0.0719,0.0719,0.072,0.072,0.0758,0.0759,0,0,0,0,0,0,0.067,0.0672,0.0694,0.0694,0.0679,0.069,0.0691,0.0696,0.0705,0.0706,0.0698,0.0698,0.0712,0.0714,0.0715,0.0732,0.072,0.0721,0.0721,0.0758,0.0758,0.0759,0,0,0,0,0,0,0.0669,0.0672,0.0693,0.0683,0.0686,0.069,0.0696,0.0697,0.0701,0.0706,0.0707,0.0701,0.0712,0.0714,0.0726,0.0732,0.0721,0.0722,0.0757,0.0758,0.0759,0.0765,0,0,0,0,0,0,0.0668,0.0671,0.0677,0.0683,0.0687,0.0703,0.0697,0.0697,0.0702,0.0702,0.0709,0.071,0.0712,0.0724,0.0727,0.0733,0.0723,0.0757,0.0758,0.0758,0.0764,0.0766,0.0767,0,0,0,0,0,0.0667,0.0678,0.0677,0.068,0.0693,0.0704,0.0705,0.0707,0.0703,0.0708,0.0712,0.071,0.0731,0.0726,0.0728,0.0735,0.0756,0.0757,0.0758,0.0764,0.0765,0.0767,0,0,0,0,0,0,0.0672,0.0679,0.0678,0.0691,0.0697,0.0703,0.071,0.0709,0.0716,0.0715,0.0717,0.0719,0.0731,0.0734,0.0728,0.0749,0.0743,0.0745,0.0746,0.0748,0.0749,0.0748,0.0723,0,0,0,0,0,0.0675,0.0683,0.0688,0.0699,0.0702,0.0706,0.071,0.0711,0.0717,0.0719,0.0724,0.073,0.0738,0.0743,0.0751,0.0765,0.0766,0.0771,0.0772,0.0773,0.0775,0.0782,0.0784,0.0762,0.0762,0.0762,0,0,0.068,0.0685,0.069,0.07,0.0705,0.0713,0.0708,0.0717,0.0723,0.0721,0.0732,0.0736,0.0742,0.0755,0.0761,0.0759,0.0781,0.0774,0.0775,0.0776,0.0783,0.0785,0.0787,0.0763,0.0763,0.0763,0,0,0.0695,0.0699,0.0709,0.0713,0.072,0.0722,0.0724,0.0731,0.0733,0.0744,0.0743,0.075,0.0764,0.0769,0.0773,0.0789,0.0788,0.0791,0.0799,0.0806,0.0808,0.0809,0.0815,0.0817,0.0793,0.0793,0.0793,0,0.0701,0.0713,0.0714,0.0723,0.0728,0.0726,0.0736,0.074,0.0749,0.0752,0.0749,0.0766,0.0771,0.0785,0.0788,0.0792,0.0795,0.0791,0.0808,0.0809,0.0811,0.0816,0.0818,0.0793,0.0793,0.0793,0.0793,0,0.072,0.0729,0.0736,0.0744,0.075,0.0759,0.0761,0.0767,0.0767,0.0769,0.0781,0.0786,0.0795,0.0798,0.0798,0.0812,0.081,0.0807,0.0802,0.0813,0.0818,0.082,0.0794,0.0794,0.0793,0.0793,0,0,0.0739,0.0747,0.075,0.0753,0.076,0.0767,0.0776,0.0784,0.0789,0.0795,0.0803,0.0815,0.0812,0.0817,0.0817,0.0824,0.0836,0.082,0.082,0.0823,0.0851,0.0853,0.0856,0.0835,0.0835,0.0835,0.085,0,0.0754,0.077,0.0771,0.0786,0.0793,0.0792,0.08,0.0805,0.0807,0.0814,0.0817,0.0825,0.0821,0.0824,0.083,0.0833,0.0841,0.0832,0.0842,0.0842,0.0841,0.0858,0.0861,0.0875,0.0852,0.0853,0.0853,0,0.0774,0.078,0.0796,0.0801,0.0805,0.0812,0.0819,0.0826,0.0832,0.0833,0.0838,0.0838,0.0847,0.0841,0.0854,0.0847,0.0852,0.0854,0.0854,0.0856,0.0849,0.086,0.0879,0.0882,0.0856,0.0856,0.0856,0,0.0786,0.0799,0.0809,0.0813,0.0819,0.0824,0.0828,0.0833,0.0838,0.0844,0.0847,0.0855,0.0859,0.0865,0.0866,0.0862,0.0879,0.0873,0.0881,0.0881,0.0885,0.0884,0.0905,0.0887,0.0887,0.0887,0.0887,0,0.0803,0.0813,0.0815,0.0822,0.0832,0.0833,0.0843,0.0846,0.0851,0.0858,0.0857,0.0863,0.0865,0.0872,0.0873,0.0884,0.0886,0.0887,0.0887,0.0887,0.0887,0.089,0.0889,0.0888,0.0887,0.0887,0.0887,0,0.0819,0.0821,0.0832,0.0837,0.0839,0.0847,0.0851,0.0857,0.0859,0.0868,0.0871,0.0874,0.0882,0.0884,0.0894,0.0895,0.0907,0.0906,0.0905,0.0905,0.0912,0.0912,0.0936,0.0939,0.0919,0.0919,0.0919,0,0.083,0.0837,0.0843,0.0848,0.0851,0.0858,0.0863,0.0864,0.0868,0.0875,0.0881,0.0889,0.0895,0.0908,0.0912,0.0919,0.0918,0.0926,0.092,0.0919,0.0919,0.0918,0.0919,0.0928,0.0928,0.0928,0.0928,0,0.0849,0.085,0.0856,0.0863,0.0869,0.0874,0.088,0.0883,0.0885,0.089,0.0898,0.0903,0.0913,0.0921,0.0928,0.0932,0.093,0.093,0.0932,0.0933,0.0932,0.0932,0.0909,0.093,0.093,0.093,0.093,0.0929,0.0863,0.087,0.0874,0.0882,0.0886,0.089,0.0896,0.0899,0.0906,0.0913,0.0913,0.0922,0.0927,0.0937,0.0941,0.0948,0.0945,0.0948,0.0949,0.095,0.095,0.093,0.0949,0.0949,0.0949,0.0949,0.0949,0,0.0883,0.0886,0.0892,0.0899,0.0905,0.0903,0.0908,0.0913,0.0921,0.0926,0.0932,0.0941,0.0949,0.0952,0.0959,0.0964,0.0964,0.0966,0.0966,0.0967,0.0952,0.095,0.0966,0.0966,0.0966,0.0966,0.0966,0.0966,0.0894,0.0904,0.0905,0.0917,0.092,0.0928,0.0931,0.0936,0.0939,0.095,0.0956,0.0958,0.0962,0.0969,0.0976,0.0977,0.098,0.0982,0.0983,0.0969,0.0968,0.0966,0.0964,0.0983,0.0983,0.0997,0.0997,0.0997]}]]